Time,TemperatureF,DewpointF,PressureIn,WindDirection,WindDirectionDegrees,WindSpeedMPH,WindSpeedGustMPH,Humidity,HourlyPrecipIn,Conditions,Clouds,dailyrainin,SoftwareType,DateUTC
2013-02-22 00:00:00,41.9,0.0,30.03,North,0,0.0,0.0,0,0.00,,,0.00,WUHU216HW,2013-02-22 05:00:00,
2013-02-22 00:05:00,41.6,0.0,30.04,North,0,0.0,0.0,0,0.00,,,0.00,WUHU216HW,2013-02-22 05:05:00,
2013-02-22 00:10:00,41.4,0.0,30.04,North,0,0.0,0.0,0,0.00,,,0.00,WUHU216HW,2013-02-22 05:10:00,
2013-02-22 00:15:00,41.0,0.0,30.04,North,0,0.0,0.0,0,0.00,,,0.00,WUHU216HW,2013-02-22 05:15:00,
2013-02-22 00:20:00,40.9,0.0,30.05,North,0,0.0,0.0,0,0.00,,,0.00,WUHU216HW,2013-02-22 05:20:00,
2013-02-22 00:25:00,40.7,0.0,30.06,North,0,0.0,0.0,0,0.00,,,0.00,WUHU216HW,2013-02-22 05:25:00,
2013-02-22 00:30:00,40.5,0.0,30.06,North,0,0.0,0.0,0,0.00,,,0.00,WUHU216HW,2013-02-22 05:30:00,
2013-02-22 00:35:00,40.7,0.0,30.07,North,0,0.0,0.0,0,0.00,,,0.00,WUHU216HW,2013-02-22 05:35:00,
2013-02-22 00:40:00,40.5,0.0,30.07,North,0,0.0,0.0,0,0.00,,,0.00,WUHU216HW,2013-02-22 05:40:00,
2013-02-22 00:45:00,40.5,0.0,30.08,North,0,0.0,0.0,0,0.00,,,0.00,WUHU216HW,2013-02-22 05:45:00,
2013-02-22 00:50:00,40.7,0.0,30.08,North,0,0.0,0.0,0,0.00,,,0.00,WUHU216HW,2013-02-22 05:50:00,
2013-02-22 00:55:00,40.7,0.0,30.09,North,0,0.0,0.0,0,0.00,,,0.00,WUHU216HW,2013-02-22 05:55:00,
2013-02-22 01:00:00,41.0,0.0,30.09,North,0,0.0,0.0,0,0.00,,,0.00,WUHU216HW,2013-02-22 06:00:00,
2013-02-22 01:05:00,40.9,0.0,30.09,North,0,0.0,0.0,0,0.02,,,0.02,WUHU216HW,2013-02-22 06:05:00,
2013-02-22 01:10:00,40.3,0.0,30.08,North,0,0.0,0.0,0,0.02,,,0.02,WUHU216HW,2013-02-22 06:10:00,
2013-02-22 01:15:00,39.6,0.0,30.08,North,0,0.0,0.0,0,0.02,,,0.02,WUHU216HW,2013-02-22 06:15:00,
2013-02-22 01:20:00,38.9,0.0,30.08,North,0,0.0,0.0,0,0.02,,,0.02,WUHU216HW,2013-02-22 06:20:00,
2013-02-22 01:25:00,38.3,0.0,30.08,North,0,0.0,0.0,0,0.04,,,0.04,WUHU216HW,2013-02-22 06:25:00,
2013-02-22 01:30:00,37.3,0.0,30.08,North,0,0.0,0.0,0,0.04,,,0.04,WUHU216HW,2013-02-22 06:30:00,
2013-02-22 01:35:00,34.9,0.0,30.07,North,0,0.0,0.0,0,0.04,,,0.04,WUHU216HW,2013-02-22 06:35:00,
2013-02-22 01:40:00,36.4,0.0,30.08,North,0,0.0,0.0,0,0.04,,,0.04,WUHU216HW,2013-02-22 06:40:00,
2013-02-22 01:45:00,35.1,0.0,30.08,North,0,0.0,0.0,0,0.06,,,0.06,WUHU216HW,2013-02-22 06:45:00,
2013-02-22 01:50:00,33.8,0.0,30.07,North,0,0.0,0.0,0,0.06,,,0.06,WUHU216HW,2013-02-22 06:50:00,
2013-02-22 01:55:00,33.5,0.0,30.07,North,0,0.0,0.0,0,0.06,,,0.06,WUHU216HW,2013-02-22 06:55:00,
2013-02-22 02:00:00,33.1,0.0,30.07,North,0,0.0,0.0,0,0.09,,,0.08,WUHU216HW,2013-02-22 07:00:00,
2013-02-22 02:05:00,32.4,0.0,30.07,North,0,0.0,0.0,0,0.06,,,0.08,WUHU216HW,2013-02-22 07:05:00,
2013-02-22 02:10:00,31.9,0.0,30.07,North,0,0.0,0.0,0,0.06,,,0.08,WUHU216HW,2013-02-22 07:10:00,
2013-02-22 02:15:00,31.7,0.0,30.08,North,0,0.0,0.0,0,0.06,,,0.08,WUHU216HW,2013-02-22 07:15:00,
2013-02-22 02:20:00,30.2,0.0,30.08,North,0,0.0,0.0,0,0.06,,,0.08,WUHU216HW,2013-02-22 07:20:00,
2013-02-22 02:25:00,30.1,0.0,30.08,North,0,0.0,0.0,0,0.06,,,0.10,WUHU216HW,2013-02-22 07:25:00,
2013-02-22 02:30:00,29.9,0.0,30.08,North,0,0.0,0.0,0,0.06,,,0.10,WUHU216HW,2013-02-22 07:30:00,
2013-02-22 02:35:00,29.7,0.0,30.08,North,0,0.0,0.0,0,0.06,,,0.10,WUHU216HW,2013-02-22 07:35:00,
2013-02-22 02:40:00,29.7,0.0,30.08,North,0,0.0,0.0,0,0.04,,,0.10,WUHU216HW,2013-02-22 07:40:00,
2013-02-22 02:45:00,29.5,0.0,30.08,North,0,0.0,0.0,0,0.04,,,0.10,WUHU216HW,2013-02-22 07:45:00,
2013-02-22 02:50:00,29.5,0.0,30.08,North,0,0.0,0.0,0,0.04,,,0.10,WUHU216HW,2013-02-22 07:50:00,
2013-02-22 02:55:00,29.7,0.0,30.06,North,0,0.0,0.0,0,0.06,,,0.13,WUHU216HW,2013-02-22 07:55:00,
2013-02-22 03:00:00,30.2,0.0,30.06,North,0,0.0,0.0,0,0.04,,,0.13,WUHU216HW,2013-02-22 08:00:00,
2013-02-22 03:05:00,30.2,0.0,30.06,North,0,0.0,0.0,0,0.06,,,0.15,WUHU216HW,2013-02-22 08:05:00,
2013-02-22 03:10:00,30.2,0.0,30.06,North,0,0.0,0.0,0,0.06,,,0.15,WUHU216HW,2013-02-22 08:10:00,
2013-02-22 03:15:00,29.9,0.0,30.06,North,0,0.0,0.0,0,0.06,,,0.15,WUHU216HW,2013-02-22 08:15:00,
2013-02-22 03:20:00,29.9,0.0,30.06,North,0,0.0,0.0,0,0.06,,,0.17,WUHU216HW,2013-02-22 08:20:00,
2013-02-22 03:25:00,29.9,0.0,30.05,North,0,0.0,0.0,0,0.06,,,0.17,WUHU216HW,2013-02-22 08:25:00,
2013-02-22 03:30:00,29.7,0.0,30.04,North,0,0.0,0.0,0,0.06,,,0.17,WUHU216HW,2013-02-22 08:30:00,
2013-02-22 03:35:00,29.5,0.0,30.03,North,0,0.0,0.0,0,0.09,,,0.19,WUHU216HW,2013-02-22 08:35:00,
2013-02-22 03:40:00,29.5,0.0,30.03,North,0,0.0,0.0,0,0.09,,,0.19,WUHU216HW,2013-02-22 08:40:00,
2013-02-22 03:45:00,29.3,0.0,30.03,North,0,0.0,0.0,0,0.11,,,0.21,WUHU216HW,2013-02-22 08:45:00,
2013-02-22 03:50:00,29.3,0.0,30.03,North,0,0.0,0.0,0,0.09,,,0.21,WUHU216HW,2013-02-22 08:50:00,
2013-02-22 03:55:00,29.3,0.0,30.02,North,0,0.0,0.0,0,0.09,,,0.21,WUHU216HW,2013-02-22 08:55:00,
2013-02-22 04:00:00,29.3,0.0,30.00,North,0,0.0,0.0,0,0.09,,,0.24,WUHU216HW,2013-02-22 09:00:00,
2013-02-22 04:05:00,29.2,0.0,30.01,North,0,0.0,0.0,0,0.09,,,0.24,WUHU216HW,2013-02-22 09:05:00,
2013-02-22 04:10:00,29.2,0.0,30.00,North,0,0.0,0.0,0,0.09,,,0.24,WUHU216HW,2013-02-22 09:10:00,
2013-02-22 04:15:00,29.2,0.0,29.98,North,0,0.0,0.0,0,0.09,,,0.24,WUHU216HW,2013-02-22 09:15:00,
2013-02-22 04:20:00,29.2,0.0,30.01,North,0,0.0,0.0,0,0.09,,,0.26,WUHU216HW,2013-02-22 09:20:00,
2013-02-22 04:25:00,29.2,0.0,30.02,North,0,0.0,0.0,0,0.09,,,0.26,WUHU216HW,2013-02-22 09:25:00,
2013-02-22 04:30:00,29.2,0.0,30.03,North,0,0.0,0.0,0,0.09,,,0.26,WUHU216HW,2013-02-22 09:30:00,
2013-02-22 04:35:00,29.2,0.0,30.04,North,0,0.0,0.0,0,0.06,,,0.26,WUHU216HW,2013-02-22 09:35:00,
2013-02-22 04:40:00,29.2,0.0,30.02,North,0,0.0,0.0,0,0.06,,,0.26,WUHU216HW,2013-02-22 09:40:00,
2013-02-22 04:45:00,29.3,0.0,30.01,North,0,0.0,0.0,0,0.04,,,0.26,WUHU216HW,2013-02-22 09:45:00,
2013-02-22 04:50:00,29.3,0.0,30.01,North,0,0.0,0.0,0,0.04,,,0.26,WUHU216HW,2013-02-22 09:50:00,
2013-02-22 04:55:00,29.3,0.0,30.00,North,0,0.0,0.0,0,0.02,,,0.26,WUHU216HW,2013-02-22 09:55:00,
2013-02-22 05:00:00,29.2,0.0,30.02,North,0,0.0,0.0,0,0.02,,,0.26,WUHU216HW,2013-02-22 10:00:00,
2013-02-22 05:05:00,29.3,0.0,30.02,North,0,0.0,0.0,0,0.02,,,0.26,WUHU216HW,2013-02-22 10:05:00,
2013-02-22 05:10:00,29.3,0.0,30.01,North,0,0.0,0.0,0,0.02,,,0.26,WUHU216HW,2013-02-22 10:10:00,
2013-02-22 05:15:00,29.3,0.0,29.97,North,0,0.0,0.0,0,0.02,,,0.26,WUHU216HW,2013-02-22 10:15:00,
2013-02-22 05:20:00,29.2,0.0,29.99,North,0,0.0,0.0,0,0.00,,,0.26,WUHU216HW,2013-02-22 10:20:00,
2013-02-22 05:25:00,29.2,0.0,30.02,North,0,0.0,0.0,0,0.00,,,0.26,WUHU216HW,2013-02-22 10:25:00,
2013-02-22 05:30:00,29.2,0.0,30.03,North,0,0.0,0.0,0,0.00,,,0.26,WUHU216HW,2013-02-22 10:30:00,
2013-02-22 05:35:00,29.3,0.0,30.03,North,0,0.0,0.0,0,0.00,,,0.26,WUHU216HW,2013-02-22 10:35:00,
2013-02-22 05:40:00,29.3,0.0,30.02,North,0,0.0,0.0,0,0.00,,,0.26,WUHU216HW,2013-02-22 10:40:00,
2013-02-22 05:45:00,29.3,0.0,30.01,North,0,0.0,0.0,0,0.00,,,0.26,WUHU216HW,2013-02-22 10:45:00,
2013-02-22 05:50:00,29.3,0.0,30.01,North,0,0.0,0.0,0,0.00,,,0.26,WUHU216HW,2013-02-22 10:50:00,
2013-02-22 05:55:00,29.3,0.0,30.02,North,0,0.0,0.0,0,0.00,,,0.26,WUHU216HW,2013-02-22 10:55:00,
2013-02-22 06:00:00,29.3,0.0,30.03,North,0,0.0,0.0,0,0.00,,,0.26,WUHU216HW,2013-02-22 11:00:00,
2013-02-22 06:05:00,29.3,0.0,30.01,North,0,0.0,0.0,0,0.00,,,0.26,WUHU216HW,2013-02-22 11:05:00,
2013-02-22 06:10:00,29.2,0.0,30.01,North,0,0.0,0.0,0,0.00,,,0.26,WUHU216HW,2013-02-22 11:10:00,
2013-02-22 06:15:00,29.2,0.0,30.02,North,0,0.0,0.0,0,0.00,,,0.26,WUHU216HW,2013-02-22 11:15:00,
2013-02-22 06:20:00,29.3,0.0,30.02,North,0,0.0,0.0,0,0.00,,,0.26,WUHU216HW,2013-02-22 11:20:00,
2013-02-22 06:25:00,29.3,0.0,30.03,North,0,0.0,0.0,0,0.00,,,0.26,WUHU216HW,2013-02-22 11:25:00,
2013-02-22 06:30:00,29.2,0.0,30.03,North,0,0.0,0.0,0,0.00,,,0.26,WUHU216HW,2013-02-22 11:30:00,
2013-02-22 06:35:00,29.2,0.0,30.03,North,0,0.0,0.0,0,0.00,,,0.26,WUHU216HW,2013-02-22 11:35:00,
2013-02-22 06:40:00,29.2,0.0,30.03,North,0,0.0,0.0,0,0.00,,,0.26,WUHU216HW,2013-02-22 11:40:00,
2013-02-22 06:45:00,29.2,0.0,30.04,North,0,0.0,0.0,0,0.00,,,0.26,WUHU216HW,2013-02-22 11:45:00,
2013-02-22 06:50:00,29.2,0.0,30.04,North,0,0.0,0.0,0,0.00,,,0.26,WUHU216HW,2013-02-22 11:50:00,
2013-02-22 06:55:00,29.2,0.0,30.05,North,0,0.0,0.0,0,0.00,,,0.26,WUHU216HW,2013-02-22 11:55:00,
2013-02-22 07:00:00,29.2,0.0,30.05,North,0,0.0,0.0,0,0.00,,,0.26,WUHU216HW,2013-02-22 12:00:00,
2013-02-22 07:05:00,29.2,0.0,30.05,North,0,0.0,0.0,0,0.00,,,0.26,WUHU216HW,2013-02-22 12:05:00,
2013-02-22 07:10:00,29.2,0.0,30.05,North,0,0.0,0.0,0,0.00,,,0.26,WUHU216HW,2013-02-22 12:10:00,
2013-02-22 07:15:00,29.2,0.0,30.06,North,0,0.0,0.0,0,0.00,,,0.26,WUHU216HW,2013-02-22 12:15:00,
2013-02-22 07:20:00,29.2,0.0,30.06,North,0,0.0,0.0,0,0.00,,,0.26,WUHU216HW,2013-02-22 12:20:00,
2013-02-22 07:25:00,29.2,0.0,30.06,North,0,0.0,0.0,0,0.00,,,0.26,WUHU216HW,2013-02-22 12:25:00,
2013-02-22 07:30:00,29.3,0.0,30.07,North,0,0.0,0.0,0,0.00,,,0.26,WUHU216HW,2013-02-22 12:30:00,
2013-02-22 07:35:00,29.2,0.0,30.06,North,0,0.0,0.0,0,0.00,,,0.26,WUHU216HW,2013-02-22 12:35:00,
2013-02-22 07:40:00,29.3,0.0,30.06,North,0,0.0,0.0,0,0.00,,,0.26,WUHU216HW,2013-02-22 12:40:00,
2013-02-22 07:45:00,29.3,0.0,30.06,North,0,0.0,0.0,0,0.00,,,0.26,WUHU216HW,2013-02-22 12:45:00,
2013-02-22 07:50:00,29.3,0.0,30.06,North,0,0.0,0.0,0,0.00,,,0.26,WUHU216HW,2013-02-22 12:50:00,
2013-02-22 07:55:00,29.3,0.0,30.06,North,0,0.0,0.0,0,0.00,,,0.26,WUHU216HW,2013-02-22 12:55:00,
2013-02-22 08:00:00,29.3,0.0,30.06,North,0,0.0,0.0,0,0.00,,,0.26,WUHU216HW,2013-02-22 13:00:00,
2013-02-22 08:05:00,29.3,0.0,30.06,North,0,0.0,0.0,0,0.02,,,0.28,WUHU216HW,2013-02-22 13:05:00,
2013-02-22 08:10:00,29.5,0.0,30.06,North,0,0.0,0.0,0,0.02,,,0.28,WUHU216HW,2013-02-22 13:10:00,
2013-02-22 08:15:00,29.5,0.0,30.06,North,0,0.0,0.0,0,0.02,,,0.28,WUHU216HW,2013-02-22 13:15:00,
2013-02-22 08:20:00,29.3,0.0,30.06,North,0,0.0,0.0,0,0.02,,,0.28,WUHU216HW,2013-02-22 13:20:00,
2013-02-22 08:25:00,29.5,0.0,30.07,North,0,0.0,0.0,0,0.04,,,0.30,WUHU216HW,2013-02-22 13:25:00,
2013-02-22 08:30:00,29.7,0.0,30.07,North,0,0.0,0.0,0,0.04,,,0.30,WUHU216HW,2013-02-22 13:30:00,
2013-02-22 08:35:00,29.7,0.0,30.07,North,0,0.0,0.0,0,0.04,,,0.30,WUHU216HW,2013-02-22 13:35:00,
2013-02-22 08:40:00,29.9,0.0,30.07,North,0,0.0,0.0,0,0.04,,,0.30,WUHU216HW,2013-02-22 13:40:00,
2013-02-22 08:45:00,30.1,0.0,30.07,North,0,0.0,0.0,0,0.04,,,0.30,WUHU216HW,2013-02-22 13:45:00,
2013-02-22 08:50:00,30.1,0.0,30.07,North,0,0.0,0.0,0,0.04,,,0.30,WUHU216HW,2013-02-22 13:50:00,
2013-02-22 08:55:00,30.1,0.0,30.06,North,0,0.0,0.0,0,0.04,,,0.30,WUHU216HW,2013-02-22 13:55:00,
2013-02-22 09:00:00,29.9,0.0,30.06,North,0,0.0,0.0,0,0.04,,,0.30,WUHU216HW,2013-02-22 14:00:00,
2013-02-22 09:05:00,29.7,0.0,30.06,North,0,0.0,0.0,0,0.04,,,0.32,WUHU216HW,2013-02-22 14:05:00,
2013-02-22 09:10:00,29.5,0.0,30.06,North,0,0.0,0.0,0,0.04,,,0.32,WUHU216HW,2013-02-22 14:10:00,
2013-02-22 09:15:00,29.7,0.0,30.06,North,0,0.0,0.0,0,0.04,,,0.32,WUHU216HW,2013-02-22 14:15:00,
2013-02-22 09:20:00,29.5,0.0,30.05,North,0,0.0,0.0,0,0.04,,,0.32,WUHU216HW,2013-02-22 14:20:00,
2013-02-22 09:25:00,29.9,0.0,30.05,North,0,0.0,0.0,0,0.02,,,0.32,WUHU216HW,2013-02-22 14:25:00,
2013-02-22 09:30:00,30.4,0.0,30.05,North,0,0.0,0.0,0,0.02,,,0.32,WUHU216HW,2013-02-22 14:30:00,
2013-02-22 09:35:00,30.6,0.0,30.04,North,0,0.0,0.0,0,0.04,,,0.34,WUHU216HW,2013-02-22 14:35:00,
2013-02-22 09:40:00,30.6,0.0,30.04,North,0,0.0,0.0,0,0.04,,,0.34,WUHU216HW,2013-02-22 14:40:00,
2013-02-22 09:45:00,30.6,0.0,30.03,North,0,0.0,0.0,0,0.04,,,0.34,WUHU216HW,2013-02-22 14:45:00,
2013-02-22 09:50:00,30.6,0.0,30.03,North,0,0.0,0.0,0,0.04,,,0.34,WUHU216HW,2013-02-22 14:50:00,
2013-02-22 09:55:00,30.4,0.0,30.03,North,0,0.0,0.0,0,0.06,,,0.36,WUHU216HW,2013-02-22 14:55:00,
2013-02-22 10:01:00,30.6,0.0,30.03,North,0,0.0,0.0,0,0.04,,,0.36,WUHU216HW,2013-02-22 15:01:00,
2013-02-22 10:06:00,30.4,0.0,30.04,North,0,0.0,0.0,0,0.04,,,0.36,WUHU216HW,2013-02-22 15:06:00,
2013-02-22 10:11:00,30.6,0.0,30.04,North,0,0.0,0.0,0,0.04,,,0.36,WUHU216HW,2013-02-22 15:11:00,
2013-02-22 10:16:00,30.6,0.0,30.04,North,0,0.0,0.0,0,0.04,,,0.36,WUHU216HW,2013-02-22 15:16:00,
2013-02-22 10:21:00,30.6,0.0,30.04,North,0,0.0,0.0,0,0.06,,,0.39,WUHU216HW,2013-02-22 15:21:00,
2013-02-22 10:26:00,31.0,0.0,30.04,North,0,0.0,0.0,0,0.06,,,0.39,WUHU216HW,2013-02-22 15:26:00,
2013-02-22 10:31:00,31.3,0.0,30.04,North,0,0.0,0.0,0,0.06,,,0.39,WUHU216HW,2013-02-22 15:31:00,
2013-02-22 10:36:00,31.5,0.0,30.04,North,0,0.0,0.0,0,0.04,,,0.39,WUHU216HW,2013-02-22 15:36:00,
2013-02-22 10:41:00,31.3,0.0,30.05,North,0,0.0,0.0,0,0.06,,,0.41,WUHU216HW,2013-02-22 15:41:00,
2013-02-22 10:46:00,31.1,0.0,30.05,North,0,0.0,0.0,0,0.06,,,0.41,WUHU216HW,2013-02-22 15:46:00,
2013-02-22 10:51:00,31.0,0.0,30.04,North,0,0.0,0.0,0,0.06,,,0.41,WUHU216HW,2013-02-22 15:51:00,
2013-02-22 10:56:00,31.1,0.0,30.04,North,0,0.0,0.0,0,0.04,,,0.41,WUHU216HW,2013-02-22 15:56:00,
2013-02-22 11:01:00,31.5,0.0,30.04,North,0,0.0,0.0,0,0.04,,,0.41,WUHU216HW,2013-02-22 16:01:00,
2013-02-22 11:06:00,31.5,0.0,30.04,North,0,0.0,0.0,0,0.04,,,0.41,WUHU216HW,2013-02-22 16:06:00,
2013-02-22 11:11:00,31.3,0.0,30.04,North,0,0.0,0.0,0,0.04,,,0.41,WUHU216HW,2013-02-22 16:11:00,
2013-02-22 11:16:00,31.5,0.0,30.04,North,0,0.0,0.0,0,0.04,,,0.41,WUHU216HW,2013-02-22 16:16:00,
2013-02-22 11:21:00,31.9,0.0,30.04,North,0,0.0,0.0,0,0.04,,,0.43,WUHU216HW,2013-02-22 16:21:00,
2013-02-22 11:26:00,32.0,0.0,30.04,North,0,0.0,0.0,0,0.04,,,0.43,WUHU216HW,2013-02-22 16:26:00,
2013-02-22 11:31:00,31.9,0.0,30.05,North,0,0.0,0.0,0,0.04,,,0.43,WUHU216HW,2013-02-22 16:31:00,
2013-02-22 11:36:00,31.7,0.0,30.05,North,0,0.0,0.0,0,0.04,,,0.43,WUHU216HW,2013-02-22 16:36:00,
2013-02-22 11:41:00,31.9,0.0,30.05,North,0,0.0,0.0,0,0.02,,,0.43,WUHU216HW,2013-02-22 16:41:00,
2013-02-22 11:46:00,32.0,0.0,30.05,North,0,0.0,0.0,0,0.02,,,0.43,WUHU216HW,2013-02-22 16:46:00,
2013-02-22 11:51:00,32.0,0.0,30.05,North,0,0.0,0.0,0,0.02,,,0.43,WUHU216HW,2013-02-22 16:51:00,
2013-02-22 11:56:00,31.9,0.0,30.04,North,0,0.0,0.0,0,0.04,,,0.43,WUHU216HW,2013-02-22 16:56:00,
2013-02-22 12:01:00,31.7,0.0,30.04,North,0,0.0,0.0,0,0.04,,,0.45,WUHU216HW,2013-02-22 17:01:00,
2013-02-22 12:06:00,31.7,0.0,30.03,North,0,0.0,0.0,0,0.04,,,0.45,WUHU216HW,2013-02-22 17:06:00,
2013-02-22 12:11:00,31.9,0.0,30.03,North,0,0.0,0.0,0,0.04,,,0.45,WUHU216HW,2013-02-22 17:11:00,
2013-02-22 12:16:00,32.0,0.0,30.04,North,0,0.0,0.0,0,0.04,,,0.45,WUHU216HW,2013-02-22 17:16:00,
2013-02-22 12:21:00,32.0,0.0,30.04,North,0,0.0,0.0,0,0.02,,,0.45,WUHU216HW,2013-02-22 17:21:00,
2013-02-22 12:26:00,32.4,0.0,30.04,North,0,0.0,0.0,0,0.02,,,0.45,WUHU216HW,2013-02-22 17:26:00,
2013-02-22 12:31:00,32.4,0.0,30.03,North,0,0.0,0.0,0,0.02,,,0.45,WUHU216HW,2013-02-22 17:31:00,
2013-02-22 12:36:00,32.0,0.0,30.03,North,0,0.0,0.0,0,0.02,,,0.45,WUHU216HW,2013-02-22 17:36:00,
2013-02-22 12:41:00,32.4,0.0,30.02,North,0,0.0,0.0,0,0.02,,,0.45,WUHU216HW,2013-02-22 17:41:00,
2013-02-22 12:46:00,32.4,0.0,30.02,North,0,0.0,0.0,0,0.04,,,0.47,WUHU216HW,2013-02-22 17:46:00,
2013-02-22 12:51:00,32.4,0.0,30.01,North,0,0.0,0.0,0,0.04,,,0.47,WUHU216HW,2013-02-22 17:51:00,
2013-02-22 12:56:00,32.6,0.0,30.01,North,0,0.0,0.0,0,0.02,,,0.47,WUHU216HW,2013-02-22 17:56:00,
2013-02-22 13:01:00,32.6,0.0,30.00,North,0,0.0,0.0,0,0.02,,,0.47,WUHU216HW,2013-02-22 18:01:00,
2013-02-22 13:06:00,32.2,0.0,30.01,North,0,0.0,0.0,0,0.02,,,0.47,WUHU216HW,2013-02-22 18:06:00,
2013-02-22 13:11:00,32.0,0.0,30.00,North,0,0.0,0.0,0,0.02,,,0.47,WUHU216HW,2013-02-22 18:11:00,
2013-02-22 13:16:00,32.0,0.0,29.99,North,0,0.0,0.0,0,0.02,,,0.47,WUHU216HW,2013-02-22 18:16:00,
2013-02-22 13:21:00,32.0,0.0,29.99,North,0,0.0,0.0,0,0.02,,,0.47,WUHU216HW,2013-02-22 18:21:00,
2013-02-22 13:26:00,32.0,0.0,29.98,North,0,0.0,0.0,0,0.02,,,0.47,WUHU216HW,2013-02-22 18:26:00,
2013-02-22 13:31:00,32.2,0.0,29.98,North,0,0.0,0.0,0,0.02,,,0.47,WUHU216HW,2013-02-22 18:31:00,
2013-02-22 13:36:00,32.2,0.0,29.99,North,0,0.0,0.0,0,0.02,,,0.47,WUHU216HW,2013-02-22 18:36:00,
2013-02-22 13:41:00,32.2,0.0,29.99,North,0,0.0,0.0,0,0.02,,,0.50,WUHU216HW,2013-02-22 18:41:00,
2013-02-22 13:46:00,32.0,0.0,29.99,North,0,0.0,0.0,0,0.02,,,0.50,WUHU216HW,2013-02-22 18:46:00,
2013-02-22 13:51:00,32.0,0.0,29.99,North,0,0.0,0.0,0,0.02,,,0.50,WUHU216HW,2013-02-22 18:51:00,
2013-02-22 13:56:00,32.0,0.0,29.99,North,0,0.0,0.0,0,0.02,,,0.50,WUHU216HW,2013-02-22 18:56:00,
2013-02-22 14:01:00,32.0,0.0,29.99,North,0,0.0,0.0,0,0.02,,,0.50,WUHU216HW,2013-02-22 19:01:00,
2013-02-22 14:06:00,32.0,0.0,29.98,North,0,0.0,0.0,0,0.02,,,0.50,WUHU216HW,2013-02-22 19:06:00,
2013-02-22 14:11:00,31.9,0.0,29.98,North,0,0.0,0.0,0,0.02,,,0.50,WUHU216HW,2013-02-22 19:11:00,
2013-02-22 14:16:00,31.9,0.0,29.98,North,0,0.0,0.0,0,0.02,,,0.50,WUHU216HW,2013-02-22 19:16:00,
2013-02-22 14:21:00,31.9,0.0,29.98,North,0,0.0,0.0,0,0.02,,,0.50,WUHU216HW,2013-02-22 19:21:00,
2013-02-22 14:26:00,31.9,0.0,29.98,North,0,0.0,0.0,0,0.02,,,0.50,WUHU216HW,2013-02-22 19:26:00,
2013-02-22 14:31:00,32.0,0.0,29.98,North,0,0.0,0.0,0,0.02,,,0.50,WUHU216HW,2013-02-22 19:31:00,
2013-02-22 14:36:00,32.4,0.0,29.98,North,0,0.0,0.0,0,0.02,,,0.50,WUHU216HW,2013-02-22 19:36:00,
2013-02-22 14:41:00,32.2,0.0,29.98,North,0,0.0,0.0,0,0.00,,,0.50,WUHU216HW,2013-02-22 19:41:00,
2013-02-22 14:46:00,32.2,0.0,29.98,North,0,0.0,0.0,0,0.00,,,0.50,WUHU216HW,2013-02-22 19:46:00,
2013-02-22 14:51:00,32.4,0.0,29.98,North,0,0.0,0.0,0,0.00,,,0.50,WUHU216HW,2013-02-22 19:51:00,
2013-02-22 14:56:00,32.6,0.0,29.97,North,0,0.0,0.0,0,0.00,,,0.50,WUHU216HW,2013-02-22 19:56:00,
2013-02-22 15:01:00,32.6,0.0,29.98,North,0,0.0,0.0,0,0.02,,,0.52,WUHU216HW,2013-02-22 20:01:00,
2013-02-22 15:06:00,32.4,0.0,29.97,North,0,0.0,0.0,0,0.02,,,0.52,WUHU216HW,2013-02-22 20:06:00,
2013-02-22 15:11:00,32.4,0.0,29.98,North,0,0.0,0.0,0,0.02,,,0.52,WUHU216HW,2013-02-22 20:11:00,
2013-02-22 15:16:00,32.4,0.0,29.98,North,0,0.0,0.0,0,0.02,,,0.52,WUHU216HW,2013-02-22 20:16:00,
2013-02-22 15:21:00,32.8,0.0,29.97,North,0,0.0,0.0,0,0.02,,,0.52,WUHU216HW,2013-02-22 20:21:00,
2013-02-22 15:26:00,32.6,0.0,29.98,North,0,0.0,0.0,0,0.02,,,0.52,WUHU216HW,2013-02-22 20:26:00,
2013-02-22 15:31:00,32.4,0.0,29.97,North,0,0.0,0.0,0,0.02,,,0.52,WUHU216HW,2013-02-22 20:31:00,
2013-02-22 15:36:00,32.6,0.0,29.97,North,0,0.0,0.0,0,0.02,,,0.52,WUHU216HW,2013-02-22 20:36:00,
2013-02-22 15:41:00,32.6,0.0,29.97,North,0,0.0,0.0,0,0.02,,,0.52,WUHU216HW,2013-02-22 20:41:00,
2013-02-22 15:46:00,32.6,0.0,29.97,North,0,0.0,0.0,0,0.02,,,0.52,WUHU216HW,2013-02-22 20:46:00,
2013-02-22 15:51:00,32.4,0.0,29.98,North,0,0.0,0.0,0,0.02,,,0.52,WUHU216HW,2013-02-22 20:51:00,
2013-02-22 15:56:00,32.4,0.0,29.98,North,0,0.0,0.0,0,0.02,,,0.52,WUHU216HW,2013-02-22 20:56:00,
2013-02-22 16:01:00,32.4,0.0,29.98,North,0,0.0,0.0,0,0.02,,,0.54,WUHU216HW,2013-02-22 21:01:00,
2013-02-22 16:06:00,32.8,0.0,29.96,North,0,0.0,0.0,0,0.02,,,0.54,WUHU216HW,2013-02-22 21:06:00,
2013-02-22 16:11:00,32.8,0.0,29.96,North,0,0.0,0.0,0,0.02,,,0.54,WUHU216HW,2013-02-22 21:11:00,
2013-02-22 16:16:00,32.6,0.0,29.97,North,0,0.0,0.0,0,0.02,,,0.54,WUHU216HW,2013-02-22 21:16:00,
2013-02-22 16:21:00,32.4,0.0,29.96,North,0,0.0,0.0,0,0.02,,,0.54,WUHU216HW,2013-02-22 21:21:00,
2013-02-22 16:26:00,32.4,0.0,29.96,North,0,0.0,0.0,0,0.02,,,0.54,WUHU216HW,2013-02-22 21:26:00,
2013-02-22 16:31:00,32.4,0.0,29.97,North,0,0.0,0.0,0,0.02,,,0.54,WUHU216HW,2013-02-22 21:31:00,
2013-02-22 16:36:00,32.2,0.0,29.97,North,0,0.0,0.0,0,0.02,,,0.54,WUHU216HW,2013-02-22 21:36:00,
2013-02-22 16:41:00,32.2,0.0,29.97,North,0,0.0,0.0,0,0.02,,,0.54,WUHU216HW,2013-02-22 21:41:00,
2013-02-22 16:46:00,32.2,0.0,29.98,North,0,0.0,0.0,0,0.02,,,0.54,WUHU216HW,2013-02-22 21:46:00,
2013-02-22 16:51:00,32.2,0.0,29.97,North,0,0.0,0.0,0,0.02,,,0.54,WUHU216HW,2013-02-22 21:51:00,
2013-02-22 16:56:00,32.0,0.0,29.97,North,0,0.0,0.0,0,0.00,,,0.54,WUHU216HW,2013-02-22 21:56:00,
2013-02-22 17:01:00,32.2,0.0,29.97,North,0,0.0,0.0,0,0.02,,,0.56,WUHU216HW,2013-02-22 22:01:00,
2013-02-22 17:06:00,32.2,0.0,29.98,North,0,0.0,0.0,0,0.02,,,0.56,WUHU216HW,2013-02-22 22:06:00,
2013-02-22 17:11:00,32.0,0.0,29.97,North,0,0.0,0.0,0,0.02,,,0.56,WUHU216HW,2013-02-22 22:11:00,
2013-02-22 17:16:00,32.0,0.0,29.96,North,0,0.0,0.0,0,0.02,,,0.56,WUHU216HW,2013-02-22 22:16:00,
2013-02-22 17:21:00,32.0,0.0,29.97,North,0,0.0,0.0,0,0.02,,,0.56,WUHU216HW,2013-02-22 22:21:00,
2013-02-22 17:26:00,32.0,0.0,29.96,North,0,0.0,0.0,0,0.02,,,0.56,WUHU216HW,2013-02-22 22:26:00,
2013-02-22 17:31:00,32.0,0.0,29.96,North,0,0.0,0.0,0,0.02,,,0.56,WUHU216HW,2013-02-22 22:31:00,
2013-02-22 17:36:00,32.0,0.0,29.96,North,0,0.0,0.0,0,0.02,,,0.56,WUHU216HW,2013-02-22 22:36:00,
2013-02-22 17:41:00,31.9,0.0,29.96,North,0,0.0,0.0,0,0.02,,,0.56,WUHU216HW,2013-02-22 22:41:00,
2013-02-22 17:46:00,31.9,0.0,29.96,North,0,0.0,0.0,0,0.02,,,0.56,WUHU216HW,2013-02-22 22:46:00,
2013-02-22 17:51:00,31.9,0.0,29.96,North,0,0.0,0.0,0,0.02,,,0.56,WUHU216HW,2013-02-22 22:51:00,
2013-02-22 17:56:00,31.7,0.0,29.95,North,0,0.0,0.0,0,0.00,,,0.56,WUHU216HW,2013-02-22 22:56:00,
2013-02-22 18:01:00,31.9,0.0,29.94,North,0,0.0,0.0,0,0.00,,,0.56,WUHU216HW,2013-02-22 23:01:00,
2013-02-22 18:06:00,31.9,0.0,29.96,North,0,0.0,0.0,0,0.00,,,0.56,WUHU216HW,2013-02-22 23:06:00,
2013-02-22 18:11:00,31.7,0.0,29.95,North,0,0.0,0.0,0,0.00,,,0.56,WUHU216HW,2013-02-22 23:11:00,
2013-02-22 18:16:00,31.7,0.0,29.96,North,0,0.0,0.0,0,0.00,,,0.56,WUHU216HW,2013-02-22 23:16:00,
2013-02-22 18:21:00,31.7,0.0,29.96,North,0,0.0,0.0,0,0.00,,,0.56,WUHU216HW,2013-02-22 23:21:00,
2013-02-22 18:26:00,31.7,0.0,29.96,North,0,0.0,0.0,0,0.00,,,0.56,WUHU216HW,2013-02-22 23:26:00,
2013-02-22 18:31:00,31.5,0.0,29.96,North,0,0.0,0.0,0,0.00,,,0.56,WUHU216HW,2013-02-22 23:31:00,
2013-02-22 18:36:00,31.7,0.0,29.95,North,0,0.0,0.0,0,0.00,,,0.56,WUHU216HW,2013-02-22 23:36:00,
2013-02-22 18:41:00,31.7,0.0,29.94,North,0,0.0,0.0,0,0.00,,,0.56,WUHU216HW,2013-02-22 23:41:00,
2013-02-22 18:46:00,31.7,0.0,29.96,North,0,0.0,0.0,0,0.00,,,0.56,WUHU216HW,2013-02-22 23:46:00,
2013-02-22 18:51:00,31.7,0.0,29.97,North,0,0.0,0.0,0,0.00,,,0.56,WUHU216HW,2013-02-22 23:51:00,
2013-02-22 18:56:00,31.5,0.0,29.97,North,0,0.0,0.0,0,0.00,,,0.56,WUHU216HW,2013-02-22 23:56:00,
2013-02-22 19:01:00,31.7,0.0,29.96,North,0,0.0,0.0,0,0.02,,,0.58,WUHU216HW,2013-02-23 00:01:00,
2013-02-22 19:06:00,31.7,0.0,29.97,North,0,0.0,0.0,0,0.02,,,0.58,WUHU216HW,2013-02-23 00:06:00,
2013-02-22 19:11:00,31.5,0.0,29.97,North,0,0.0,0.0,0,0.02,,,0.58,WUHU216HW,2013-02-23 00:11:00,
2013-02-22 19:16:00,31.5,0.0,29.97,North,0,0.0,0.0,0,0.02,,,0.58,WUHU216HW,2013-02-23 00:16:00,
2013-02-22 19:21:00,31.5,0.0,29.96,North,0,0.0,0.0,0,0.02,,,0.58,WUHU216HW,2013-02-23 00:21:00,
2013-02-22 19:26:00,31.7,0.0,29.96,North,0,0.0,0.0,0,0.02,,,0.58,WUHU216HW,2013-02-23 00:26:00,
2013-02-22 19:31:00,31.7,0.0,29.96,North,0,0.0,0.0,0,0.02,,,0.58,WUHU216HW,2013-02-23 00:31:00,
2013-02-22 19:36:00,31.7,0.0,29.96,North,0,0.0,0.0,0,0.02,,,0.58,WUHU216HW,2013-02-23 00:36:00,
2013-02-22 19:41:00,31.9,0.0,29.95,North,0,0.0,0.0,0,0.02,,,0.58,WUHU216HW,2013-02-23 00:41:00,
2013-02-22 19:46:00,31.9,0.0,29.95,North,0,0.0,0.0,0,0.02,,,0.58,WUHU216HW,2013-02-23 00:46:00,
2013-02-22 19:51:00,31.9,0.0,29.95,North,0,0.0,0.0,0,0.02,,,0.58,WUHU216HW,2013-02-23 00:51:00,
2013-02-22 19:56:00,31.9,0.0,29.96,North,0,0.0,0.0,0,0.02,,,0.60,WUHU216HW,2013-02-23 00:56:00,
2013-02-22 20:01:00,31.7,0.0,29.95,North,0,0.0,0.0,0,0.02,,,0.60,WUHU216HW,2013-02-23 01:01:00,
2013-02-22 20:06:00,31.9,0.0,29.94,North,0,0.0,0.0,0,0.02,,,0.60,WUHU216HW,2013-02-23 01:06:00,
2013-02-22 20:11:00,31.9,0.0,29.95,North,0,0.0,0.0,0,0.02,,,0.60,WUHU216HW,2013-02-23 01:11:00,
2013-02-22 20:16:00,31.9,0.0,29.94,North,0,0.0,0.0,0,0.02,,,0.60,WUHU216HW,2013-02-23 01:16:00,
2013-02-22 20:21:00,31.9,0.0,29.94,North,0,0.0,0.0,0,0.02,,,0.60,WUHU216HW,2013-02-23 01:21:00,
2013-02-22 20:26:00,31.7,0.0,29.94,North,0,0.0,0.0,0,0.02,,,0.60,WUHU216HW,2013-02-23 01:26:00,
2013-02-22 20:31:00,31.7,0.0,29.94,North,0,0.0,0.0,0,0.02,,,0.60,WUHU216HW,2013-02-23 01:31:00,
2013-02-22 20:36:00,31.7,0.0,29.93,North,0,0.0,0.0,0,0.02,,,0.60,WUHU216HW,2013-02-23 01:36:00,
2013-02-22 20:41:00,31.7,0.0,29.93,North,0,0.0,0.0,0,0.02,,,0.60,WUHU216HW,2013-02-23 01:41:00,
2013-02-22 20:46:00,31.7,0.0,29.94,North,0,0.0,0.0,0,0.02,,,0.60,WUHU216HW,2013-02-23 01:46:00,
2013-02-22 20:51:00,31.7,0.0,29.94,North,0,0.0,0.0,0,0.02,,,0.60,WUHU216HW,2013-02-23 01:51:00,
2013-02-22 20:56:00,31.5,0.0,29.95,North,0,0.0,0.0,0,0.00,,,0.60,WUHU216HW,2013-02-23 01:56:00,
2013-02-22 21:01:00,31.7,0.0,29.95,North,0,0.0,0.0,0,0.00,,,0.60,WUHU216HW,2013-02-23 02:01:00,
2013-02-22 21:06:00,31.7,0.0,29.96,North,0,0.0,0.0,0,0.00,,,0.60,WUHU216HW,2013-02-23 02:06:00,
2013-02-22 21:11:00,31.5,0.0,29.96,North,0,0.0,0.0,0,0.00,,,0.60,WUHU216HW,2013-02-23 02:11:00,
2013-02-22 21:16:00,31.5,0.0,29.97,North,0,0.0,0.0,0,0.00,,,0.60,WUHU216HW,2013-02-23 02:16:00,
2013-02-22 21:21:00,31.7,0.0,29.97,North,0,0.0,0.0,0,0.00,,,0.60,WUHU216HW,2013-02-23 02:21:00,
2013-02-22 21:26:00,31.9,0.0,29.96,North,0,0.0,0.0,0,0.00,,,0.60,WUHU216HW,2013-02-23 02:26:00,
2013-02-22 21:31:00,31.9,0.0,29.95,North,0,0.0,0.0,0,0.00,,,0.60,WUHU216HW,2013-02-23 02:31:00,
2013-02-22 21:36:00,31.7,0.0,29.96,North,0,0.0,0.0,0,0.00,,,0.60,WUHU216HW,2013-02-23 02:36:00,
2013-02-22 21:41:00,31.7,0.0,29.95,North,0,0.0,0.0,0,0.00,,,0.60,WUHU216HW,2013-02-23 02:41:00,
2013-02-22 21:46:00,31.7,0.0,29.95,North,0,0.0,0.0,0,0.00,,,0.60,WUHU216HW,2013-02-23 02:46:00,
2013-02-22 21:51:00,31.7,0.0,29.94,North,0,0.0,0.0,0,0.00,,,0.60,WUHU216HW,2013-02-23 02:51:00,
2013-02-22 21:56:00,31.7,0.0,29.94,North,0,0.0,0.0,0,0.00,,,0.60,WUHU216HW,2013-02-23 02:56:00,
2013-02-22 22:01:00,31.7,0.0,29.94,North,0,0.0,0.0,0,0.00,,,0.60,WUHU216HW,2013-02-23 03:01:00,
2013-02-22 22:06:00,31.5,0.0,29.94,North,0,0.0,0.0,0,0.00,,,0.60,WUHU216HW,2013-02-23 03:06:00,
2013-02-22 22:11:00,31.5,0.0,29.95,North,0,0.0,0.0,0,0.00,,,0.60,WUHU216HW,2013-02-23 03:11:00,
2013-02-22 22:16:00,31.7,0.0,29.94,North,0,0.0,0.0,0,0.00,,,0.60,WUHU216HW,2013-02-23 03:16:00,
2013-02-22 22:21:00,31.7,0.0,29.94,North,0,0.0,0.0,0,0.00,,,0.60,WUHU216HW,2013-02-23 03:21:00,
2013-02-22 22:26:00,31.7,0.0,29.95,North,0,0.0,0.0,0,0.02,,,0.63,WUHU216HW,2013-02-23 03:26:00,
2013-02-22 22:31:00,31.7,0.0,29.94,North,0,0.0,0.0,0,0.02,,,0.63,WUHU216HW,2013-02-23 03:31:00,
2013-02-22 22:36:00,31.7,0.0,29.94,North,0,0.0,0.0,0,0.02,,,0.63,WUHU216HW,2013-02-23 03:36:00,
2013-02-22 22:41:00,31.7,0.0,29.93,North,0,0.0,0.0,0,0.02,,,0.63,WUHU216HW,2013-02-23 03:41:00,
2013-02-22 22:46:00,31.7,0.0,29.93,North,0,0.0,0.0,0,0.02,,,0.63,WUHU216HW,2013-02-23 03:46:00,
2013-02-22 22:51:00,31.7,0.0,29.93,North,0,0.0,0.0,0,0.02,,,0.63,WUHU216HW,2013-02-23 03:51:00,
2013-02-22 22:56:00,31.7,0.0,29.93,North,0,0.0,0.0,0,0.02,,,0.63,WUHU216HW,2013-02-23 03:56:00,
2013-02-22 23:01:00,31.7,0.0,29.93,North,0,0.0,0.0,0,0.02,,,0.63,WUHU216HW,2013-02-23 04:01:00,
2013-02-22 23:06:00,31.7,0.0,29.93,North,0,0.0,0.0,0,0.02,,,0.63,WUHU216HW,2013-02-23 04:06:00,
2013-02-22 23:11:00,31.7,0.0,29.92,North,0,0.0,0.0,0,0.02,,,0.63,WUHU216HW,2013-02-23 04:11:00,
2013-02-22 23:16:00,31.7,0.0,29.91,North,0,0.0,0.0,0,0.02,,,0.63,WUHU216HW,2013-02-23 04:16:00,
2013-02-22 23:21:00,31.7,0.0,29.91,North,0,0.0,0.0,0,0.00,,,0.63,WUHU216HW,2013-02-23 04:21:00,
2013-02-22 23:26:00,31.7,0.0,29.90,North,0,0.0,0.0,0,0.00,,,0.63,WUHU216HW,2013-02-23 04:26:00,
2013-02-22 23:31:00,31.7,0.0,29.90,North,0,0.0,0.0,0,0.00,,,0.63,WUHU216HW,2013-02-23 04:31:00,
2013-02-22 23:36:00,31.7,0.0,29.89,North,0,0.0,0.0,0,0.00,,,0.63,WUHU216HW,2013-02-23 04:36:00,
2013-02-22 23:41:00,31.7,0.0,29.89,North,0,0.0,0.0,0,0.00,,,0.63,WUHU216HW,2013-02-23 04:41:00,
2013-02-22 23:46:00,31.7,0.0,29.89,North,0,0.0,0.0,0,0.00,,,0.63,WUHU216HW,2013-02-23 04:46:00,
2013-02-22 23:51:00,31.7,0.0,29.89,North,0,0.0,0.0,0,0.00,,,0.63,WUHU216HW,2013-02-23 04:51:00,
2013-02-22 23:56:00,31.7,0.0,29.90,North,0,0.0,0.0,0,0.00,,,0.63,WUHU216HW,2013-02-23 04:56:00,